Location: Kernascl�den
(48.0062°N, 3.3198°W)
Time: 22:01:44
(UTC+00:00)

Meteor 2-1 Rocket - Pass Details

Date: 21 January 2021
Orbit: 827 x 910 km, 81.3° (Epoch: 04 March)

Event Time Altitude Azimuth Distance (km) Brightness Sun altitude
Rises 18:32:38 0° 349° (NNW) 3,421 7.4 -15.8°
Reaches altitude 10° 18:35:05 10° 350° (N) 2,471 6.6 -16.2°
Maximum altitude 18:40:41 81° 78° (ENE) 848 4.1 -17.1°
Drops below altitude 10° 18:46:11 10° 167° (SSE) 2,426 6.5 -18.0°
Sets 18:48:33 0° 168° (SSE) 3,353 7.3 -18.4°
